When you browse on this site, cookies collect data to enhance your experience and personalize the content and advertising you see.
Visit our Privacy Policy to learn more. By continuing to use the site, you agree to this use of cookies and data.
  • In Österreich
  • Länderverzeichnis
  • Für 7 Tage
  • Wassertemperatur
  • Wetterkarte
  • News
  • Widgets
  • user-avatar
    Anmelden

    Stündliche Wetter Zakumachnoe

    Heute, 4 Juni, Donnerstag

    Zeit Temperatur Niederschläge Wind Luftdruck Luftfeuchtigkeit
    00:00 +16°C° 0 mm 5 m/S 741 mmHg 61%
    01:00 +15°C° 0 mm 5 m/S 741 mmHg 63%
    02:00 +15°C° 0 mm 5 m/S 741 mmHg 64%
    03:00 +14°C° 0 mm 5 m/S 742 mmHg 65%
    04:00 +14°C° 0 mm 5 m/S 742 mmHg 67%
    05:00 +15°C° 0 mm 5 m/S 742 mmHg 64%
    06:00 +16°C° 0 mm 6 m/S 742 mmHg 61%
    07:00 +17°C° 0 mm 6 m/S 742 mmHg 58%
    08:00 +18°C° 0 mm 7 m/S 742 mmHg 53%
    09:00 +20°C° 0 mm 7 m/S 742 mmHg 49%
    10:00 +21°C° 0 mm 7 m/S 742 mmHg 44%
    11:00 +22°C° 0 mm 7 m/S 742 mmHg 42%
    12:00 +23°C° 0 mm 6 m/S 742 mmHg 39%
    13:00 +23°C° 0 mm 6 m/S 742 mmHg 37%
    14:00 +23°C° 0 mm 6 m/S 742 mmHg 36%
    15:00 +23°C° 0 mm 6 m/S 742 mmHg 35%
    16:00 +23°C° 0 mm 7 m/S 742 mmHg 35%
    17:00 +22°C° 0 mm 6 m/S 742 mmHg 38%
    18:00 +21°C° 0 mm 5 m/S 742 mmHg 42%
    19:00 +20°C° 0 mm 5 m/S 742 mmHg 45%
    20:00 +19°C° 0 mm 5 m/S 743 mmHg 47%
    21:00 +17°C° 0 mm 5 m/S 744 mmHg 49%
    22:00 +16°C° 0 mm 5 m/S 744 mmHg 51%
    23:00 +15°C° 0 mm 6 m/S 744 mmHg 53%

    Morgen, 5 Juni, Freitag

    Zeit Temperatur Niederschläge Wind Luftdruck Luftfeuchtigkeit
    00:00 +14°C° 0 mm 6 m/S 745 mmHg 54%
    01:00 +14°C° 0 mm 6 m/S 745 mmHg 56%
    02:00 +13°C° 0 mm 6 m/S 745 mmHg 56%
    03:00 +13°C° 0 mm 6 m/S 746 mmHg 57%
    04:00 +11°C° 0 mm 6 m/S 746 mmHg 58%
    05:00 +13°C° 0 mm 6 m/S 746 mmHg 56%
    06:00 +13°C° 0 mm 6 m/S 746 mmHg 53%
    07:00 +14°C° 0 mm 6 m/S 746 mmHg 51%
    08:00 +15°C° 0 mm 6 m/S 747 mmHg 47%
    09:00 +17°C° 0 mm 6 m/S 747 mmHg 43%
    10:00 +19°C° 0 mm 6 m/S 747 mmHg 39%
    11:00 +20°C° 0 mm 6 m/S 747 mmHg 35%
    12:00 +21°C° 0 mm 5 m/S 747 mmHg 31%
    13:00 +22°C° 0 mm 5 m/S 747 mmHg 28%
    14:00 +22°C° 0 mm 5 m/S 747 mmHg 28%
    15:00 +22°C° 0 mm 5 m/S 747 mmHg 28%
    16:00 +22°C° 0 mm 5 m/S 747 mmHg 28%
    17:00 +21°C° 0 mm 5 m/S 746 mmHg 32%
    18:00 +20°C° 0 mm 4 m/S 746 mmHg 36%
    19:00 +19°C° 0 mm 4 m/S 746 mmHg 40%
    20:00 +18°C° 0 mm 4 m/S 747 mmHg 41%
    21:00 +17°C° 0 mm 4 m/S 747 mmHg 42%
    22:00 +15°C° 0 mm 4 m/S 747 mmHg 43%
    23:00 +15°C° 0 mm 4 m/S 747 mmHg 44%

    übermorgen, 6 Juni, Samstag

    Zeit Temperatur Niederschläge Wind Luftdruck Luftfeuchtigkeit
    00:00 +14°C° 0 mm 4 m/S 747 mmHg 46%
    01:00 +14°C° 0 mm 4 m/S 747 mmHg 47%
    02:00 +14°C° 0 mm 4 m/S 747 mmHg 48%
    03:00 +13°C° 0 mm 4 m/S 747 mmHg 49%
    04:00 +13°C° 0 mm 4 m/S 747 mmHg 49%
    05:00 +14°C° 0 mm 5 m/S 747 mmHg 46%
    06:00 +16°C° 0 mm 6 m/S 748 mmHg 43%
    07:00 +17°C° 0 mm 6 m/S 748 mmHg 40%
    08:00 +20°C° 0 mm 7 m/S 748 mmHg 37%
    09:00 +21°C° 0 mm 7 m/S 748 mmHg 34%
    10:00 +22°C° 0 mm 7 m/S 748 mmHg 31%
    11:00 +23°C° 0 mm 7 m/S 748 mmHg 30%
    12:00 +24°C° 0 mm 6 m/S 747 mmHg 29%
    13:00 +26°C° 0 mm 6 m/S 747 mmHg 27%
    14:00 +26°C° 0 mm 6 m/S 747 mmHg 27%
    15:00 +26°C° 0 mm 5 m/S 747 mmHg 27%
    16:00 +26°C° 0 mm 5 m/S 747 mmHg 26%
    17:00 +25°C° 0 mm 5 m/S 747 mmHg 30%
    18:00 +23°C° 0 mm 4 m/S 747 mmHg 34%
    19:00 +22°C° 0 mm 4 m/S 747 mmHg 37%
    20:00 +20°C° 0 mm 4 m/S 747 mmHg 38%
    21:00 +19°C° 0 mm 4 m/S 747 mmHg 38%
    22:00 +18°C° 0 mm 4 m/S 747 mmHg 39%
    23:00 +17°C° 0 mm 4 m/S 747 mmHg 41%

    7 Juni, Sonntag

    Zeit Temperatur Niederschläge Wind Luftdruck Luftfeuchtigkeit
    00:00 +15°C° 0 mm 4 m/S 747 mmHg 44%
    01:00 +16°C° 0 mm 3 m/S 747 mmHg 46%
    02:00 +14°C° 0 mm 3 m/S 747 mmHg 48%
    03:00 +13°C° 0 mm 3 m/S 748 mmHg 50%
    04:00 +14°C° 0 mm 2 m/S 748 mmHg 52%
    05:00 +16°C° 0 mm 3 m/S 748 mmHg 50%
    06:00 +18°C° 0 mm 3 m/S 748 mmHg 47%
    07:00 +19°C° 0 mm 4 m/S 748 mmHg 44%
    08:00 +21°C° 0 mm 4 m/S 748 mmHg 39%
    09:00 +23°C° 0 mm 4 m/S 748 mmHg 33%
    10:00 +25°C° 0 mm 5 m/S 748 mmHg 28%
    11:00 +26°C° 0 mm 5 m/S 748 mmHg 27%
    12:00 +27°C° 0 mm 5 m/S 748 mmHg 26%
    13:00 +27°C° 0 mm 5 m/S 748 mmHg 25%
    14:00 +27°C° 0 mm 5 m/S 748 mmHg 25%
    15:00 +27°C° 0 mm 5 m/S 748 mmHg 26%
    16:00 +27°C° 0 mm 5 m/S 747 mmHg 26%
    17:00 +26°C° 0 mm 4 m/S 747 mmHg 30%
    18:00 +25°C° 0 mm 3 m/S 747 mmHg 34%
    19:00 +24°C° 0 mm 3 m/S 747 mmHg 38%
    20:00 +22°C° 0 mm 3 m/S 747 mmHg 40%
    21:00 +20°C° 0 mm 3 m/S 747 mmHg 42%
    22:00 +19°C° 0 mm 4 m/S 748 mmHg 43%
    23:00 +18°C° 0 mm 3 m/S 748 mmHg 45%

    8 Juni, Montag

    Zeit Temperatur Niederschläge Wind Luftdruck Luftfeuchtigkeit
    00:00 +18°C° 0 mm 3 m/S 748 mmHg 46%
    01:00 +17°C° 0 mm 3 m/S 748 mmHg 47%
    02:00 +17°C° 0 mm 3 m/S 748 mmHg 48%
    03:00 +16°C° 0 mm 3 m/S 748 mmHg 49%
    04:00 +16°C° 0 mm 3 m/S 747 mmHg 49%
    05:00 +18°C° 0 mm 4 m/S 748 mmHg 47%
    06:00 +20°C° 0 mm 4 m/S 748 mmHg 45%
    07:00 +21°C° 0 mm 5 m/S 748 mmHg 43%
    08:00 +23°C° 0 mm 5 m/S 748 mmHg 38%
    09:00 +26°C° 0 mm 5 m/S 748 mmHg 34%
    10:00 +27°C° 0 mm 5 m/S 748 mmHg 30%
    11:00 +28°C° 0 mm 5 m/S 748 mmHg 29%
    12:00 +28°C° 0 mm 4 m/S 748 mmHg 28%
    13:00 +29°C° 0 mm 4 m/S 748 mmHg 27%
    14:00 +29°C° 0 mm 4 m/S 748 mmHg 27%
    15:00 +29°C° 0 mm 4 m/S 748 mmHg 28%
    16:00 +28°C° 0 mm 3 m/S 748 mmHg 28%
    17:00 +28°C° 0 mm 3 m/S 748 mmHg 32%
    18:00 +27°C° 0 mm 2 m/S 748 mmHg 37%
    19:00 +26°C° 0 mm 2 m/S 748 mmHg 41%
    20:00 +24°C° 0 mm 2 m/S 748 mmHg 42%
    21:00 +21°C° 0 mm 2 m/S 748 mmHg 44%
    22:00 +21°C° 0 mm 1 m/S 748 mmHg 45%
    23:00 +19°C° 0 mm 2 m/S 748 mmHg 46%

    9 Juni, Dienstag

    Zeit Temperatur Niederschläge Wind Luftdruck Luftfeuchtigkeit
    00:00 +19°C° 0 mm 2 m/S 749 mmHg 46%
    01:00 +19°C° 0 mm 2 m/S 749 mmHg 46%
    02:00 +18°C° 0 mm 2 m/S 749 mmHg 48%
    03:00 +18°C° 0 mm 2 m/S 749 mmHg 49%
    04:00 +17°C° 0 mm 2 m/S 749 mmHg 51%
    05:00 +19°C° 0 mm 3 m/S 749 mmHg 49%
    06:00 +21°C° 0 mm 3 m/S 749 mmHg 47%
    07:00 +22°C° 0 mm 3 m/S 750 mmHg 45%
    08:00 +25°C° 0 mm 3 m/S 750 mmHg 40%
    09:00 +27°C° 0 mm 4 m/S 750 mmHg 35%
    10:00 +29°C° 0 mm 4 m/S 750 mmHg 30%
    11:00 +29°C° 0 mm 5 m/S 750 mmHg 28%
    12:00 +30°C° 0 mm 5 m/S 750 mmHg 27%
    13:00 +32°C° 0 mm 5 m/S 750 mmHg 25%
    14:00 +30°C° 0 mm 5 m/S 750 mmHg 27%
    15:00 +30°C° 0 mm 4 m/S 749 mmHg 29%
    16:00 +30°C° 0 mm 4 m/S 749 mmHg 31%
    17:00 +29°C° 0 mm 4 m/S 749 mmHg 34%
    18:00 +28°C° 0 mm 3 m/S 749 mmHg 37%
    19:00 +27°C° 0 mm 2 m/S 749 mmHg 40%
    20:00 +26°C° 0 mm 2 m/S 749 mmHg 42%
    21:00 +24°C° 0 mm 2 m/S 749 mmHg 44%
    22:00 +23°C° 0 mm 2 m/S 749 mmHg 45%
    23:00 +21°C° 0 mm 2 m/S 749 mmHg 48%
    Mehr zeigen